Le Mars, IA

1:02 AM CST on November 17, 2019 (GMT -0600)
Le Mars Municipal

Weather History for KLRJ - July, 2019

Change the Weather History Date:

Sunday, July 14, 2019

  Actual Average Record
Temperature  
Mean Temperature 80 °F -  
Max Temperature 91 °F 88 °F 100 °F (1980)
Min Temperature 69 °F 63 °F 47 °F (1990)
Cooling Degree Days 15    
Growing Degree Days 30 (Base 50)    
Moisture  
Dew Point 73 °F    
Average Humidity 79    
Maximum Humidity 100    
Minimum Humidity 52    
Precipitation  
Precipitation 0.00 in - - ()
Sea Level Pressure  
Sea Level Pressure 30.00 in    
Wind  
Wind Speed 8 mph (South)    
Max Wind Speed 17 mph    
Max Gust Speed 23 mph    
Visibility 10 miles    
Events      
Averages and records for this station are not official NWS values.
T = Trace of Precipitation, MM = Missing Value Source: NWS Daily Summary

Daily Weather History Graph

Daily Weather History Graph

Search for Another Location

Airport or City:

Astronomy

Jul. 14, 2019 Rise Set
Actual Time 5:58 AM CDT 9:01 PM CDT
Civil Twilight 5:24 AM CDT 9:35 PM CDT
Nautical Twilight 4:41 AM CDT 10:19 PM CDT
Astronomical Twilight 3:49 AM CDT 11:10 PM CDT
Moon 7:25 PM CDT (7/14) 4:01 AM CDT (7/14)
Length of Visible Light 16h 10m
Length of Day
15h 02m
Waxing Gibbous, 95% of the Moon is Illuminated
Jul 14
Waxing Gibbous
Jul 16
Full
Jul 24
Last Quarter
Jul 31
New
Aug 7
First Quarter

Hourly Weather History & Observations

Time (CDT) Temp. Heat Index Dew Point Humidity Pressure Visibility Wind Dir Wind Speed Gust Speed Precip Events Conditions
12:15 AM 75.2 °F - 73.4 °F 94% 30.02 in 10.0 mi SSE 4.6 mph - N/A   Clear
12:35 AM 75.2 °F - 73.4 °F 94% 30.02 in 10.0 mi SSE 5.8 mph - N/A   Clear
12:55 AM 73.4 °F - 73.4 °F 100% 30.02 in 10.0 mi SSE 4.6 mph - N/A   Clear
1:15 AM 73.4 °F - 73.4 °F 100% 30.02 in 10.0 mi South 5.8 mph - N/A   Clear
1:35 AM 73.4 °F - 73.4 °F 100% 30.02 in 10.0 mi SSE 4.6 mph - N/A   Clear
1:55 AM 73.4 °F - 73.4 °F 100% 30.03 in 10.0 mi SE 5.8 mph - N/A   Clear
2:15 AM 73.4 °F - 73.4 °F 100% 30.03 in 10.0 mi SE 3.5 mph - N/A   Clear
2:35 AM 73.4 °F - 71.6 °F 94% 30.03 in 10.0 mi SSE 3.5 mph - N/A   Clear
2:55 AM 73.4 °F - 71.6 °F 94% 30.04 in 10.0 mi SSE 3.5 mph - N/A   Clear
3:15 AM 71.6 °F - 71.6 °F 100% 30.04 in 10.0 mi South 4.6 mph - N/A   Clear
3:35 AM 71.6 °F - 71.6 °F 100% 30.04 in 10.0 mi South 4.6 mph - N/A   Clear
3:55 AM 71.6 °F - 71.6 °F 100% 30.04 in 10.0 mi South 5.8 mph - N/A   Clear
4:15 AM 71.6 °F - 71.6 °F 100% 30.04 in 10.0 mi South 4.6 mph - N/A   Clear
4:35 AM 71.6 °F - 71.6 °F 100% 30.03 in 10.0 mi SSE 5.8 mph - N/A   Clear
4:55 AM 71.6 °F - 71.6 °F 100% 30.04 in 10.0 mi South 6.9 mph - N/A   Clear
5:15 AM 71.6 °F - 71.6 °F 100% 30.05 in 10.0 mi Calm Calm - N/A   Clear
5:35 AM 71.6 °F - 71.6 °F 100% 30.05 in 10.0 mi South 3.5 mph - N/A   Clear
5:55 AM 69.8 °F - 69.8 °F 100% 30.05 in 10.0 mi South 4.6 mph - N/A   Clear
6:15 AM 69.8 °F - 69.8 °F 100% 30.05 in 10.0 mi South 4.6 mph - N/A   Clear
6:35 AM 71.6 °F - 71.6 °F 100% 30.05 in - South 3.5 mph - N/A   Unknown
6:55 AM 71.6 °F - 71.6 °F 100% 30.06 in 10.0 mi SSW 4.6 mph - N/A   Clear
7:15 AM 73.4 °F - 71.6 °F 94% 30.06 in 10.0 mi South 5.8 mph - N/A   Clear
7:35 AM 73.4 °F - 73.4 °F 100% 30.06 in 10.0 mi South 4.6 mph - N/A   Clear
7:55 AM 75.2 °F - 73.4 °F 94% 30.06 in 9.0 mi South 8.1 mph - N/A   Clear
8:15 AM 77.0 °F - 73.4 °F 89% 30.06 in 10.0 mi South 10.4 mph - N/A   Clear
8:35 AM 77.0 °F - 73.4 °F 89% 30.05 in 10.0 mi South 10.4 mph - N/A   Clear
8:55 AM 78.8 °F - 73.4 °F 83% 30.04 in 10.0 mi South 11.5 mph - N/A   Clear
9:15 AM 80.6 °F 85.4 °F 73.4 °F 79% 30.03 in 10.0 mi South 12.7 mph - N/A   Clear
9:35 AM 80.6 °F 85.4 °F 73.4 °F 79% 30.02 in 10.0 mi SSE 12.7 mph - N/A   Clear
9:55 AM 82.4 °F 88.2 °F 73.4 °F 74% 30.02 in 10.0 mi SSE 10.4 mph 17.3 mph N/A   Clear
10:15 AM 84.2 °F 90.9 °F 73.4 °F 70% 30.03 in 10.0 mi South 10.4 mph 16.1 mph N/A   Clear
10:35 AM 84.2 °F 89.6 °F 71.6 °F 66% 30.03 in 10.0 mi South 12.7 mph - N/A   Clear
10:55 AM 84.2 °F 89.6 °F 71.6 °F 66% 30.02 in 10.0 mi South 13.8 mph - N/A   Clear
11:15 AM 86.0 °F 91.8 °F 71.6 °F 62% 30.01 in 10.0 mi South 12.7 mph 19.6 mph N/A   Clear
11:35 AM 86.0 °F 93.4 °F 73.4 °F 66% 30.01 in 10.0 mi South 15.0 mph - N/A   Clear
11:55 AM 87.8 °F 93.8 °F 71.6 °F 58% 30.02 in 10.0 mi SSW 16.1 mph - N/A   Clear
12:15 PM 87.8 °F 95.6 °F 73.4 °F 62% 30.02 in 10.0 mi South 12.7 mph - N/A   Clear
12:35 PM 87.8 °F 95.6 °F 73.4 °F 62% 30.02 in 10.0 mi South 15.0 mph - N/A   Clear
12:55 PM 89.6 °F 98.2 °F 73.4 °F 59% 30.02 in 10.0 mi South 15.0 mph - N/A   Clear
1:15 PM 89.6 °F 98.2 °F 73.4 °F 59% 30.02 in 10.0 mi South 12.7 mph - N/A   Partly Cloudy
1:35 PM 89.6 °F 98.2 °F 73.4 °F 59% 30.02 in 10.0 mi SSW 13.8 mph 20.7 mph N/A   Mostly Cloudy
1:55 PM 89.6 °F 98.2 °F 73.4 °F 59% 30.01 in 10.0 mi South 13.8 mph 19.6 mph N/A   Mostly Cloudy
2:15 PM 89.6 °F 98.2 °F 73.4 °F 59% 30.00 in 10.0 mi South 15.0 mph - N/A   Partly Cloudy
2:35 PM 91.4 °F 100.1 °F 73.4 °F 55% 30.00 in 10.0 mi South 13.8 mph - N/A   Partly Cloudy
2:55 PM 91.4 °F 98.4 °F 71.6 °F 52% 30.00 in 10.0 mi South 13.8 mph - N/A   Scattered Clouds
3:15 PM 91.4 °F 98.4 °F 71.6 °F 52% 30.00 in 10.0 mi South 15.0 mph - N/A   Partly Cloudy
3:35 PM 91.4 °F 98.4 °F 71.6 °F 52% 29.99 in - South 15.0 mph - N/A   Clear
3:55 PM 91.4 °F 98.4 °F 71.6 °F 52% 29.99 in 10.0 mi South 15.0 mph - N/A   Clear
4:15 PM 91.4 °F 100.1 °F 73.4 °F 55% 29.98 in 10.0 mi South 17.3 mph - N/A   Clear
4:35 PM 91.4 °F 98.4 °F 71.6 °F 52% 29.97 in 10.0 mi North - - N/A   Clear
4:55 PM 91.4 °F 100.1 °F 73.4 °F 55% 29.97 in 10.0 mi SSE 15.0 mph 23.0 mph N/A   Clear
5:15 PM 91.4 °F 98.4 °F 71.6 °F 52% 29.97 in 10.0 mi South 15.0 mph 20.7 mph N/A   Clear
5:35 PM 89.6 °F 96.2 °F 71.6 °F 55% 29.96 in 10.0 mi South 16.1 mph - N/A   Clear
5:55 PM 89.6 °F 98.2 °F 73.4 °F 59% 29.96 in 10.0 mi South 10.4 mph - N/A   Clear
6:15 PM 87.8 °F 93.8 °F 71.6 °F 58% 29.95 in 10.0 mi South 13.8 mph - N/A   Clear
6:35 PM 87.8 °F 95.6 °F 73.4 °F 62% 29.95 in 10.0 mi South 10.4 mph - N/A   Clear
6:55 PM 86.0 °F 93.4 °F 73.4 °F 66% 29.95 in 10.0 mi North - - N/A   Clear
7:15 PM 86.0 °F 95.1 °F 75.2 °F 70% 29.94 in 10.0 mi SE 9.2 mph - N/A   Clear
7:35 PM 84.2 °F 92.3 °F 75.2 °F 74% 29.94 in 10.0 mi SE 9.2 mph - N/A   Clear
7:55 PM 84.2 °F 94.1 °F 77.0 °F 79% 29.94 in 10.0 mi SE 8.1 mph - N/A   Clear
8:15 PM 84.2 °F 94.1 °F 77.0 °F 79% 29.94 in 10.0 mi SSE 10.4 mph - N/A   Clear
8:35 PM 82.4 °F 90.9 °F 77.0 °F 84% 29.93 in 10.0 mi SSE 9.2 mph - N/A   Clear
8:55 PM 82.4 °F 90.9 °F 77.0 °F 84% 29.93 in 10.0 mi SSE 10.4 mph - N/A   Clear
9:15 PM 80.6 °F 87.1 °F 77.0 °F 89% 29.93 in 10.0 mi SSE 9.2 mph - N/A   Clear
9:35 PM 80.6 °F 86.2 °F 75.2 °F 84% 29.93 in 10.0 mi SSE 13.8 mph - N/A   Clear
9:55 PM 80.6 °F 86.2 °F 75.2 °F 84% 29.94 in 10.0 mi SSE 13.8 mph - N/A   Clear
10:15 PM 80.6 °F 85.4 °F 73.4 °F 79% 29.93 in 10.0 mi SSE 13.8 mph - N/A   Clear
10:35 PM 80.6 °F 85.4 °F 73.4 °F 79% 29.93 in 10.0 mi South 12.7 mph - N/A   Clear
10:55 PM 78.8 °F - 73.4 °F 83% 29.94 in 10.0 mi South 9.2 mph - N/A   Clear
11:15 PM 78.8 °F - 73.4 °F 83% 29.94 in 10.0 mi South 9.2 mph - N/A   Clear
11:35 PM 78.8 °F - 73.4 °F 83% 29.94 in 10.0 mi South 6.9 mph - N/A   Clear
11:55 PM 77.0 °F - 71.6 °F 83% 29.93 in 10.0 mi South 8.1 mph - N/A   Clear